N6LC EDDH-LSGG

Flight info

Callsign N6LC
Flight time 1h 29m
Altitude 40000
Route HABFU1C/05 HABFU Y348 MAWEQ DCT NVO DCT LIMGO/N0392F390 N852 SUTAL DCT GTQ DCT POGOL DCT LASAT DCT MOROK Z24 AKITO
Aircraft PC24/L-SDFGRWY/S

Departure

Time 2026-05-07 11:43
Airport Hamburg Helmut Schmidt Airport (EDDH)

Arrival

Time 2026-05-07 13:13
Airport Geneva International Airport (LSGG)
Time Latitude Longitude Altitude Speed Heading
2026-05-07 11:25 53.62668 9.98748 47 ft 0 kts 63°
2026-05-07 11:39 53.62669 9.98750 47 ft 2 kts 47°
2026-05-07 11:39 53.62672 9.98729 47 ft 7 kts 240°
2026-05-07 11:40 53.62702 9.98652 47 ft 9 kts 334°
2026-05-07 11:40 53.62689 9.98555 47 ft 13 kts 229°
2026-05-07 11:40 53.62631 9.98439 47 ft 13 kts 230°
2026-05-07 11:40 53.62576 9.98328 47 ft 12 kts 229°
2026-05-07 11:41 53.62519 9.98220 47 ft 14 kts 224°
2026-05-07 11:41 53.62432 9.98090 47 ft 20 kts 222°
2026-05-07 11:41 53.62338 9.97912 46 ft 20 kts 230°
2026-05-07 11:41 53.62253 9.97741 47 ft 18 kts 230°
2026-05-07 11:42 53.62179 9.97578 47 ft 16 kts 249°
2026-05-07 11:42 53.62205 9.97412 47 ft 15 kts 317°
2026-05-07 11:42 53.62291 9.97358 49 ft 12 kts
2026-05-07 11:42 53.62361 9.97461 48 ft 29 kts 51°
2026-05-07 11:43 53.62669 9.98091 60 ft 110 kts 54°
2026-05-07 11:43 53.63245 9.99312 442 ft 152 kts 51°
2026-05-07 11:43 53.63954 10.00688 1238 ft 151 kts 48°
2026-05-07 11:43 53.64668 10.02096 2212 ft 160 kts 52°
2026-05-07 11:44 53.65393 10.03611 3142 ft 176 kts 54°
2026-05-07 11:44 53.66164 10.05308 4148 ft 188 kts 50°
2026-05-07 11:44 53.67204 10.06826 5113 ft 210 kts 32°
2026-05-07 11:44 53.68170 10.07205 5952 ft 220 kts 358°
2026-05-07 11:45 53.69479 10.05836 7151 ft 235 kts 308°
2026-05-07 11:45 53.69924 10.02200 8550 ft 247 kts 263°
2026-05-07 11:45 53.69646 10.00293 9372 ft 250 kts 248°
2026-05-07 11:45 53.68585 9.97977 10432 ft 254 kts 218°
2026-05-07 11:46 53.67095 9.96230 11257 ft 270 kts 212°
2026-05-07 11:46 53.65447 9.94520 11905 ft 292 kts 212°
2026-05-07 11:46 53.63710 9.92664 12917 ft 297 kts 213°
2026-05-07 11:46 53.61989 9.90676 13959 ft 303 kts 216°
2026-05-07 11:47 53.60242 9.88678 14994 ft 304 kts 214°
2026-05-07 11:47 53.58461 9.86718 15994 ft 308 kts 214°
2026-05-07 11:47 53.56668 9.84721 16995 ft 311 kts 215°
2026-05-07 11:47 53.54867 9.82687 17988 ft 313 kts 215°
2026-05-07 11:48 53.53045 9.80642 18894 ft 316 kts 215°
2026-05-07 11:48 53.51202 9.78587 19680 ft 320 kts 215°
2026-05-07 11:48 53.49336 9.76507 20471 ft 324 kts 214°
2026-05-07 11:48 53.47446 9.74401 21245 ft 327 kts 214°
2026-05-07 11:49 53.45542 9.72278 22029 ft 330 kts 214°
2026-05-07 11:49 53.43616 9.70136 22773 ft 333 kts 214°
2026-05-07 11:49 53.41669 9.67973 23470 ft 338 kts 214°
2026-05-07 11:49 53.39700 9.65786 24092 ft 341 kts 214°
2026-05-07 11:50 53.37709 9.63580 24668 ft 344 kts 214°
2026-05-07 11:50 53.35701 9.61356 25246 ft 346 kts 214°
2026-05-07 11:50 53.33677 9.59117 25746 ft 352 kts 214°
2026-05-07 11:50 53.31648 9.56876 26251 ft 355 kts 214°
2026-05-07 11:51 53.29547 9.54559 26766 ft 358 kts 214°
2026-05-07 11:51 53.27486 9.52285 27291 ft 361 kts 214°
2026-05-07 11:51 53.25354 9.49939 27807 ft 363 kts 214°
2026-05-07 11:51 53.23261 9.47639 28231 ft 367 kts 214°
2026-05-07 11:52 53.21122 9.45290 28741 ft 368 kts 214°
2026-05-07 11:52 53.18992 9.42952 29371 ft 366 kts 214°
2026-05-07 11:52 53.16871 9.40626 29956 ft 365 kts 214°
2026-05-07 11:52 53.14741 9.38298 30406 ft 366 kts 214°
2026-05-07 11:53 53.12614 9.35974 30821 ft 366 kts 214°
2026-05-07 11:53 53.10484 9.33648 31265 ft 366 kts 214°
2026-05-07 11:53 53.08358 9.31330 31713 ft 365 kts 214°
2026-05-07 11:53 53.06228 9.29013 32113 ft 367 kts 214°
2026-05-07 11:54 53.04090 9.26686 32538 ft 367 kts 214°
2026-05-07 11:54 53.01959 9.24368 32968 ft 366 kts 214°
2026-05-07 11:54 52.99825 9.22054 33376 ft 367 kts 214°
2026-05-07 11:54 52.97687 9.19740 33777 ft 367 kts 214°
2026-05-07 11:55 52.95553 9.17427 34154 ft 367 kts 214°
2026-05-07 11:55 52.93326 9.15349 34457 ft 368 kts 208°
2026-05-07 11:55 52.91063 9.13390 34840 ft 366 kts 209°
2026-05-07 11:55 52.88819 9.11427 35222 ft 364 kts 209°
2026-05-07 11:56 52.86579 9.09452 35560 ft 364 kts 208°
2026-05-07 11:56 52.84346 9.07491 35928 ft 363 kts 209°
2026-05-07 11:56 52.82114 9.05543 36306 ft 361 kts 208°
2026-05-07 11:56 52.79895 9.03608 36640 ft 361 kts 208°
2026-05-07 11:57 52.77672 9.01667 36963 ft 362 kts 208°
2026-05-07 11:57 52.75446 8.99722 37305 ft 361 kts 208°
2026-05-07 11:57 52.73226 8.97791 37649 ft 361 kts 208°
2026-05-07 11:57 52.71013 8.95868 38002 ft 360 kts 208°
2026-05-07 11:58 52.68820 8.93964 38329 ft 360 kts 208°
2026-05-07 11:58 52.66576 8.92015 38688 ft 360 kts 208°
2026-05-07 11:58 52.64435 8.90154 39348 ft 344 kts 208°
2026-05-07 11:58 52.62348 8.88349 39911 ft 335 kts 208°
2026-05-07 11:59 52.60279 8.86554 40061 ft 340 kts 208°
2026-05-07 11:59 52.55988 8.82842 40077 ft 357 kts 208°
2026-05-07 12:00 52.51496 8.78970 40076 ft 372 kts 208°
2026-05-07 12:00 52.46829 8.74951 40077 ft 385 kts 208°
2026-05-07 12:01 52.41984 8.70793 40054 ft 396 kts 208°
2026-05-07 12:01 52.37048 8.66566 40068 ft 405 kts 208°
2026-05-07 12:02 52.32008 8.62261 40070 ft 412 kts 208°
2026-05-07 12:02 52.26995 8.57700 40049 ft 411 kts 216°
2026-05-07 12:03 52.22662 8.51729 40067 ft 409 kts 221°
2026-05-07 12:03 52.18342 8.45725 40053 ft 408 kts 220°
2026-05-07 12:04 52.14039 8.39729 40057 ft 407 kts 220°
2026-05-07 12:04 52.09733 8.33756 40061 ft 408 kts 220°
2026-05-07 12:05 52.05391 8.27745 40073 ft 412 kts 220°
2026-05-07 12:05 52.01026 8.21719 40074 ft 412 kts 220°
2026-05-07 12:06 51.96804 8.15905 40053 ft 410 kts 220°
2026-05-07 12:06 51.92451 8.09932 40060 ft 408 kts 220°
2026-05-07 12:07 51.88127 8.04003 40053 ft 407 kts 220°
2026-05-07 12:07 51.83787 7.98086 40060 ft 409 kts 220°
2026-05-07 12:08 51.79431 7.92142 40063 ft 411 kts 220°
2026-05-07 12:08 51.75048 7.86189 40059 ft 413 kts 220°
2026-05-07 12:09 51.70653 7.80230 40059 ft 412 kts 220°
2026-05-07 12:09 51.66294 7.74340 40059 ft 411 kts 220°
2026-05-07 12:10 51.61889 7.68402 40052 ft 410 kts 220°
2026-05-07 12:10 51.57553 7.62571 40046 ft 409 kts 220°
2026-05-07 12:11 51.53185 7.56711 40049 ft 409 kts 220°
2026-05-07 12:11 51.48823 7.50875 40049 ft 408 kts 220°
2026-05-07 12:12 51.44457 7.45050 40052 ft 408 kts 220°
2026-05-07 12:12 51.40085 7.39229 40047 ft 409 kts 220°
2026-05-07 12:13 51.35706 7.33417 40054 ft 409 kts 220°
2026-05-07 12:13 51.31318 7.27607 40046 ft 409 kts 220°
2026-05-07 12:14 51.26955 7.21844 40042 ft 410 kts 220°
2026-05-07 12:14 51.22554 7.16049 40043 ft 410 kts 220°
2026-05-07 12:15 51.18151 7.10259 40053 ft 410 kts 220°
2026-05-07 12:15 51.13744 7.04485 40055 ft 410 kts 220°
2026-05-07 12:16 51.09336 6.98724 40044 ft 410 kts 220°
2026-05-07 12:16 51.04922 6.92967 40045 ft 410 kts 220°
2026-05-07 12:17 51.00503 6.87221 40046 ft 411 kts 220°
2026-05-07 12:17 50.96076 6.81476 40048 ft 411 kts 219°
2026-05-07 12:18 50.91650 6.75750 40052 ft 411 kts 219°
2026-05-07 12:18 50.87216 6.70022 40053 ft 411 kts 219°
2026-05-07 12:19 50.82700 6.64592 40030 ft 411 kts 207°
2026-05-07 12:19 50.80032 6.62970 40055 ft 412 kts 196°
2026-05-07 12:19 50.77221 6.62075 40056 ft 412 kts 192°
2026-05-07 12:20 50.71576 6.60394 40056 ft 414 kts 192°
2026-05-07 12:20 50.65919 6.58644 40053 ft 414 kts 192°
2026-05-07 12:21 50.60255 6.56931 40045 ft 415 kts 192°
2026-05-07 12:21 50.54579 6.55202 40042 ft 415 kts 192°
2026-05-07 12:22 50.48917 6.53488 40030 ft 413 kts 192°
2026-05-07 12:22 50.43279 6.51783 40020 ft 411 kts 192°
2026-05-07 12:23 50.37667 6.50093 40016 ft 410 kts 192°
2026-05-07 12:23 50.32065 6.48403 40012 ft 411 kts 192°
2026-05-07 12:24 50.26440 6.46719 40010 ft 412 kts 192°
2026-05-07 12:24 50.20796 6.45027 40011 ft 414 kts 192°
2026-05-07 12:25 50.15170 6.43348 40016 ft 415 kts 192°
2026-05-07 12:25 50.09489 6.41656 40018 ft 415 kts 192°
2026-05-07 12:26 50.03820 6.39972 40011 ft 413 kts 192°
2026-05-07 12:26 49.98190 6.38300 40010 ft 411 kts 192°
2026-05-07 12:27 49.92578 6.36641 40028 ft 410 kts 192°
2026-05-07 12:27 49.86964 6.34985 40040 ft 411 kts 192°
2026-05-07 12:28 49.81332 6.33325 40044 ft 413 kts 192°
2026-05-07 12:28 49.75671 6.31665 40042 ft 414 kts 192°
2026-05-07 12:29 49.70012 6.30004 40045 ft 414 kts 192°
2026-05-07 12:29 49.64306 6.28791 40041 ft 417 kts 178°
2026-05-07 12:29 49.61457 6.29654 40045 ft 421 kts 162°
2026-05-07 12:30 49.58733 6.31340 40058 ft 421 kts 159°
2026-05-07 12:30 49.53338 6.34897 40051 ft 422 kts 159°
2026-05-07 12:31 49.47939 6.38337 40054 ft 423 kts 159°
2026-05-07 12:31 49.42563 6.41990 40050 ft 422 kts 158°
2026-05-07 12:32 49.37189 6.45617 40052 ft 421 kts 158°
2026-05-07 12:32 49.31830 6.49272 40047 ft 421 kts 158°
2026-05-07 12:33 49.24667 6.54116 40044 ft 420 kts 158°
2026-05-07 12:33 49.19317 6.57737 40044 ft 421 kts 158°
2026-05-07 12:34 49.13994 6.61321 40045 ft 420 kts 158°
2026-05-07 12:34 49.08643 6.64921 40038 ft 421 kts 159°
2026-05-07 12:35 49.03293 6.68510 40035 ft 420 kts 159°
2026-05-07 12:35 48.97825 6.71313 40047 ft 414 kts 174°
2026-05-07 12:36 48.92078 6.71362 40049 ft 414 kts 184°
2026-05-07 12:36 48.86298 6.71136 40047 ft 416 kts 184°
2026-05-07 12:37 48.80513 6.70914 40048 ft 415 kts 184°
2026-05-07 12:37 48.74754 6.70682 40045 ft 413 kts 184°
2026-05-07 12:38 48.69017 6.70466 40040 ft 412 kts 184°
2026-05-07 12:38 48.63294 6.70238 40039 ft 411 kts 184°
2026-05-07 12:39 48.57578 6.70020 40038 ft 411 kts 184°
2026-05-07 12:39 48.51849 6.69796 40040 ft 413 kts 184°
2026-05-07 12:40 48.46135 6.69576 40046 ft 414 kts 184°
2026-05-07 12:40 48.40365 6.69355 40040 ft 415 kts 184°
2026-05-07 12:41 48.34580 6.69131 40047 ft 416 kts 184°
2026-05-07 12:41 48.28792 6.68909 40049 ft 416 kts 184°
2026-05-07 12:42 48.23017 6.68688 40043 ft 415 kts 184°
2026-05-07 12:42 48.17258 6.68468 40040 ft 412 kts 184°
2026-05-07 12:43 48.11532 6.68247 40043 ft 411 kts 184°
2026-05-07 12:43 48.05822 6.68024 40040 ft 410 kts 184°
2026-05-07 12:44 48.00112 6.67815 40047 ft 411 kts 184°
2026-05-07 12:44 47.94643 6.67606 40050 ft 412 kts 184°
2026-05-07 12:45 47.88904 6.67423 40057 ft 413 kts 184°
2026-05-07 12:45 47.83412 6.67170 40056 ft 414 kts 184°
2026-05-07 12:46 47.77678 6.66973 40045 ft 415 kts 184°
2026-05-07 12:46 47.74782 6.66863 39856 ft 419 kts 184°
2026-05-07 12:46 47.71913 6.66752 39334 ft 409 kts 184°
2026-05-07 12:47 47.69110 6.66648 38808 ft 398 kts 184°
2026-05-07 12:47 47.66378 6.66548 38223 ft 387 kts 185°
2026-05-07 12:47 47.63719 6.66449 37725 ft 378 kts 185°
2026-05-07 12:47 47.61109 6.66349 37231 ft 374 kts 185°
2026-05-07 12:48 47.58511 6.66249 36732 ft 376 kts 185°
2026-05-07 12:48 47.55870 6.66148 36249 ft 384 kts 185°
2026-05-07 12:48 47.53165 6.66049 35731 ft 391 kts 185°
2026-05-07 12:48 47.50426 6.65949 35211 ft 395 kts 185°
2026-05-07 12:49 47.47682 6.65849 34688 ft 395 kts 185°
2026-05-07 12:49 47.44928 6.65746 34164 ft 394 kts 185°
2026-05-07 12:49 47.43122 6.65678 33784 ft 394 kts 185°
2026-05-07 12:49 47.40546 6.65583 33285 ft 392 kts 185°
2026-05-07 12:50 47.37855 6.65485 32773 ft 392 kts 185°
2026-05-07 12:50 47.35126 6.65383 32256 ft 393 kts 185°
2026-05-07 12:50 47.32387 6.65281 31740 ft 394 kts 185°
2026-05-07 12:50 47.29644 6.65179 31223 ft 394 kts 184°
2026-05-07 12:51 47.26895 6.65078 30701 ft 395 kts 184°
2026-05-07 12:51 47.24150 6.64970 30145 ft 394 kts 185°
2026-05-07 12:51 47.21525 6.64035 29580 ft 387 kts 205°
2026-05-07 12:51 47.19197 6.62079 29051 ft 387 kts 220°
2026-05-07 12:52 47.17181 6.59476 28556 ft 386 kts 225°
2026-05-07 12:52 47.15191 6.56797 28039 ft 389 kts 224°
2026-05-07 12:52 47.13169 6.54121 27522 ft 391 kts 224°
2026-05-07 12:52 47.11138 6.51490 27004 ft 388 kts 223°
2026-05-07 12:53 47.09131 6.48885 26497 ft 383 kts 223°
2026-05-07 12:53 47.07155 6.46289 25996 ft 380 kts 224°
2026-05-07 12:53 47.05193 6.43718 25499 ft 377 kts 223°
2026-05-07 12:53 47.03242 6.41174 24995 ft 375 kts 223°
2026-05-07 12:54 47.01295 6.38644 24514 ft 372 kts 223°
2026-05-07 12:54 46.99365 6.36145 24021 ft 369 kts 223°
2026-05-07 12:54 46.97481 6.33675 23538 ft 367 kts 223°
2026-05-07 12:54 46.95583 6.31207 23021 ft 363 kts 223°
2026-05-07 12:55 46.93701 6.28773 22542 ft 359 kts 223°
2026-05-07 12:55 46.91832 6.26351 22071 ft 362 kts 223°
2026-05-07 12:55 46.89928 6.23879 21591 ft 367 kts 223°
2026-05-07 12:55 46.88024 6.21394 21102 ft 367 kts 223°
2026-05-07 12:56 46.86129 6.18915 20623 ft 365 kts 223°
2026-05-07 12:56 46.84240 6.16458 20141 ft 362 kts 222°
2026-05-07 12:56 46.82371 6.14028 19667 ft 359 kts 223°
2026-05-07 12:56 46.80516 6.11618 19191 ft 357 kts 223°
2026-05-07 12:57 46.78668 6.09219 18727 ft 354 kts 223°
2026-05-07 12:57 46.76833 6.06834 18256 ft 352 kts 223°
2026-05-07 12:57 46.75011 6.04481 17766 ft 348 kts 222°
2026-05-07 12:57 46.73207 6.02143 17306 ft 346 kts 223°
2026-05-07 12:58 46.71412 5.99819 16857 ft 344 kts 223°
2026-05-07 12:58 46.69624 5.97508 16403 ft 343 kts 222°
2026-05-07 12:58 46.67843 5.95208 15950 ft 341 kts 222°
2026-05-07 12:58 46.66076 5.92932 15502 ft 338 kts 222°
2026-05-07 12:59 46.64318 5.90678 15058 ft 336 kts 222°
2026-05-07 12:59 46.62568 5.88434 14616 ft 334 kts 222°
2026-05-07 12:59 46.60827 5.86206 14159 ft 333 kts 222°
2026-05-07 12:59 46.58983 5.84208 13492 ft 332 kts 207°
2026-05-07 13:00 46.56776 5.83637 13055 ft 318 kts 178°
2026-05-07 13:00 46.54675 5.84204 12683 ft 301 kts 165°
2026-05-07 13:00 46.52796 5.85454 12308 ft 295 kts 150°
2026-05-07 13:00 46.51158 5.87214 11939 ft 292 kts 143°
2026-05-07 13:01 46.49567 5.89049 11551 ft 292 kts 145°
2026-05-07 13:01 46.47914 5.90743 11165 ft 290 kts 149°
2026-05-07 13:01 46.46257 5.92335 10787 ft 288 kts 148°
2026-05-07 13:01 46.44608 5.93970 10410 ft 286 kts 147°
2026-05-07 13:02 46.42985 5.95611 10030 ft 283 kts 147°
2026-05-07 13:02 46.41376 5.97229 9631 ft 279 kts 148°
2026-05-07 13:02 46.39852 5.98914 9229 ft 277 kts 134°
2026-05-07 13:02 46.39042 6.01446 8959 ft 283 kts 99°
2026-05-07 13:03 46.39339 6.04244 8755 ft 287 kts 66°
2026-05-07 13:03 46.40603 6.06460 8579 ft 286 kts 43°
2026-05-07 13:03 46.41814 6.08765 8436 ft 291 kts 61°
2026-05-07 13:03 46.42772 6.11368 8262 ft 293 kts 61°
2026-05-07 13:04 46.43850 6.13845 8067 ft 289 kts 54°
2026-05-07 13:04 46.45054 6.16174 7896 ft 288 kts 52°
2026-05-07 13:04 46.46236 6.18509 7719 ft 287 kts 54°
2026-05-07 13:04 46.47364 6.20887 7536 ft 286 kts 56°
2026-05-07 13:05 46.48483 6.23236 7368 ft 277 kts 54°
2026-05-07 13:05 46.49556 6.25445 7178 ft 259 kts 54°
2026-05-07 13:05 46.50584 6.27558 7004 ft 253 kts 54°
2026-05-07 13:05 46.51558 6.29608 6992 ft 242 kts 58°
2026-05-07 13:06 46.51913 6.31964 6999 ft 246 kts 98°
2026-05-07 13:06 46.51168 6.34168 7000 ft 247 kts 137°
2026-05-07 13:06 46.49667 6.35236 7002 ft 241 kts 175°
2026-05-07 13:06 46.48064 6.34845 6867 ft 233 kts 202°
2026-05-07 13:07 46.46565 6.33951 6598 ft 233 kts 201°
2026-05-07 13:07 46.45010 6.33309 6292 ft 232 kts 193°
2026-05-07 13:07 46.43430 6.32943 5984 ft 228 kts 189°
2026-05-07 13:07 46.41869 6.32614 5679 ft 226 kts 191°
2026-05-07 13:08 46.40316 6.32226 5367 ft 225 kts 191°
2026-05-07 13:08 46.38808 6.31837 5080 ft 216 kts 193°
2026-05-07 13:08 46.37479 6.30920 4787 ft 211 kts 219°
2026-05-07 13:08 46.36402 6.29474 4510 ft 211 kts 226°
2026-05-07 13:09 46.35389 6.27978 4230 ft 211 kts 227°
2026-05-07 13:09 46.34358 6.26442 4023 ft 207 kts 226°
2026-05-07 13:09 46.33361 6.24974 3731 ft 202 kts 227°
2026-05-07 13:09 46.32394 6.23554 3458 ft 190 kts 227°
2026-05-07 13:10 46.31486 6.22199 3207 ft 186 kts 226°
2026-05-07 13:10 46.30591 6.20883 2961 ft 186 kts 226°
2026-05-07 13:10 46.29714 6.19594 2700 ft 170 kts 227°
2026-05-07 13:10 46.28960 6.18447 2466 ft 146 kts 229°
2026-05-07 13:11 46.28292 6.17455 2314 ft 126 kts 226°
2026-05-07 13:11 46.27695 6.16564 2131 ft 119 kts 226°
2026-05-07 13:11 46.27111 6.15707 1957 ft 120 kts 225°
2026-05-07 13:11 46.26528 6.14865 1805 ft 121 kts 226°
2026-05-07 13:12 46.25933 6.13992 1676 ft 121 kts 224°
2026-05-07 13:12 46.25337 6.13135 1508 ft 123 kts 224°
2026-05-07 13:12 46.24744 6.12274 1375 ft 116 kts 224°
2026-05-07 13:12 46.24246 6.11539 1370 ft 89 kts 226°
2026-05-07 13:13 46.23894 6.11028 1376 ft 53 kts 225°
2026-05-07 13:13 46.23707 6.10791 1377 ft 29 kts 209°
2026-05-07 13:13 46.23557 6.10713 1379 ft 17 kts 194°
2026-05-07 13:13 46.23459 6.10676 1386 ft 13 kts 198°
2026-05-07 13:14 46.23387 6.10623 1386 ft 12 kts 220°
2026-05-07 13:14 46.23323 6.10530 1388 ft 13 kts 226°
2026-05-07 13:14 46.23259 6.10437 1386 ft 13 kts 225°
2026-05-07 13:14 46.23198 6.10349 1389 ft 12 kts 225°
2026-05-07 13:15 46.23138 6.10254 1389 ft 14 kts 233°
2026-05-07 13:15 46.23062 6.10138 1390 ft 18 kts 224°
2026-05-07 13:15 46.22978 6.10013 1389 ft 17 kts 225°
2026-05-07 13:15 46.22895 6.09893 1390 ft 17 kts 225°
2026-05-07 13:16 46.22816 6.09776 1389 ft 16 kts 226°
2026-05-07 13:16 46.22748 6.09698 1390 ft 8 kts 149°
2026-05-07 13:16 46.22702 6.09763 1387 ft 10 kts 136°
2026-05-07 13:16 46.22653 6.09745 1384 ft 8 kts 225°
2026-05-07 13:17 46.22647 6.09735 1388 ft 0 kts 226°